[[{"header":{"parameterUnit":"m.s-1","parameterCategory":1,"la1":30.2992,"la2":30.254,"lo1":-89.0895,"lo2":-89.0443,"dy":0.0025,"dx":0.0025,"nx":19,"ny":19,"refTime":"2026-04-15T21:00:00:Z","depth":0,"parameterNumber":2,"parameterNumberName":"U-component_of_WINDS"},"data":[0,0,0,-1.332,-1.332,-1.3322,-1.3322,-1.334,-1.334,0,0,0,0,0,0,0,0,0,0,0,-1.3328,-1.3329,-1.332,-1.332,-1.3322,-1.3322,-1.3339,-1.334,0,0,0,0,0,0,0,0,0,0,0,-1.3328,-1.3329,-1.3329,-1.332,-1.3322,-1.3322,-1.3339,-1.3333,0,0,0,0,0,0,0,0,0,0,-1.3329,-1.3344,-1.3329,-1.3329,-1.3321,-1.3322,-1.3322,-1.3332,-1.3333,-1.3345,0,-1.3357,0,-1.3349,-1.3342,-1.3342,0,0,0,-1.3314,-1.3344,-1.3336,-1.3329,-1.3321,-1.3322,-1.332,-1.3333,-1.3334,-1.3347,-1.3358,-1.3358,-1.3349,-1.3342,-1.3342,-1.343,-1.3431,0,0,-1.3314,-1.3333,-1.3336,-1.3337,-1.3337,-1.332,-1.332,-1.3333,-1.3347,-1.3358,-1.3358,-1.335,-1.3342,-1.3343,-1.3429,-1.343,0,0,0,-1.3318,-1.3334,-1.3325,-1.3337,-1.3336,-1.332,-1.332,-1.3346,-1.3342,-1.3358,-1.335,-1.3343,-1.3343,-1.3429,-1.343,-1.3482,0,0,0,-1.3318,-1.3336,-1.3326,-1.3338,-1.3336,-1.3341,-1.3333,-1.3341,-1.3342,-1.335,-1.3343,-1.3343,-1.3428,-1.3429,-1.3479,-1.3503,0,0,0,-1.3325,-1.3337,-1.334,-1.3339,-1.334,-1.334,-1.3336,-1.334,-1.3337,-1.3342,-1.3343,-1.3427,-1.3429,-1.3476,-1.3499,-1.3531,0,0,0,-1.3339,-1.3387,-1.3341,-1.3391,-1.334,-1.3373,-1.3336,-1.336,-1.337,-1.3343,-1.3428,-1.343,-1.3475,-1.3496,-1.3528,-1.3561,-1.3577,0,0,-1.341,-1.3396,-1.3424,-1.3383,-1.3429,-1.3371,-1.3424,-1.3416,-1.34,-1.3421,-1.3423,-1.348,-1.3498,-1.3531,-1.3661,-1.3673,0,0,0,-1.3453,-1.3474,-1.3482,-1.3492,-1.3487,-1.3485,-1.3466,-1.3463,-1.348,-1.3415,-1.35,-1.3511,-1.3529,-1.3544,-1.3555,-1.3569,-1.3438,-1.3437,-1.3437,-1.3581,-1.3557,-1.3602,-1.3578,-1.3589,-1.3569,-1.3576,-1.3569,-1.3542,-1.3563,-1.3569,-1.365,-1.3669,-1.3677,-1.3692,-1.3585,-1.3585,-1.3586,-1.3586,-1.3682,-1.3707,-1.3669,-1.3699,-1.3674,-1.3699,-1.3683,-1.3663,-1.3683,-1.3644,-1.3659,-1.3618,-1.3691,-1.3703,-1.3589,-1.3589,-1.3588,-1.3588,-1.3588,-1.3762,-1.3769,-1.3765,-1.3778,-1.3791,-1.3766,-1.3786,-1.3763,-1.3741,-1.3756,-1.3759,-1.3758,-1.3753,-1.3759,-1.376,-1.376,-1.376,-1.376,-1.376,-1.3846,-1.3839,-1.3859,-1.3858,-1.3862,-1.3864,-1.3846,-1.3849,-1.3847,-1.3828,-1.3828,-1.3798,-1.3703,-1.3679,-1.3765,-1.3764,-1.3763,-1.3763,-1.3763,-1.3956,-1.3927,-1.3958,-1.3962,-1.3958,-1.3972,-1.3943,-1.3951,-1.3951,-1.3962,-1.393,-1.3864,-1.3848,-1.3839,-1.3819,-1.3935,-1.3935,-1.3935,-1.3935,-1.4022,-1.4012,-1.4038,-1.4045,-1.405,-1.4026,-1.4062,-1.4049,-1.4031,-1.4029,-1.401,-1.3981,-1.3973,-1.3962,-1.3951,-1.3931,-1.4074,-1.4074,-1.4074,-1.4088,-1.4077,-1.4112,-1.4093,-1.4089,-1.4086,-1.4119,-1.4129,-1.4103,-1.4079,-1.4027,-1.4022,-1.3976,-1.3962,-1.3936,-1.3919,-1.3883,0,0]},{"header":{"parameterUnit":"m.s-1","parameterCategory":1,"la1":30.2992,"la2":30.254,"lo1":-89.0895,"lo2":-89.0443,"dy":0.0025,"dx":0.0025,"nx":19,"ny":19,"refTime":"2026-04-15T21:00:00:Z","depth":0,"parameterNumber":3,"parameterNumberName":"V-component_of_WINDS"},"data":[0,0,0,3.9709,3.9708,3.9651,3.9651,3.9574,3.9573,0,0,0,0,0,0,0,0,0,0,0,3.9726,3.9725,3.9709,3.9708,3.9651,3.9651,3.9574,3.9573,0,0,0,0,0,0,0,0,0,0,0,3.9726,3.9725,3.9725,3.9707,3.9651,3.9651,3.9574,3.9618,0,0,0,0,0,0,0,0,0,0,3.9673,3.9689,3.9726,3.9725,3.9707,3.9651,3.965,3.962,3.9615,3.9598,0,3.9586,0,3.9579,3.9568,3.9567,0,0,0,3.9706,3.9693,3.9679,3.9725,3.9707,3.9651,3.9676,3.9617,3.9611,3.9592,3.9585,3.9582,3.9577,3.9567,3.9567,3.9484,3.9484,0,0,3.971,3.9715,3.9683,3.9675,3.9687,3.9678,3.9674,3.9614,3.9605,3.9585,3.9581,3.9576,3.9567,3.9566,3.9484,3.9484,0,0,0,3.9719,3.9717,3.9704,3.9678,3.9669,3.9676,3.9672,3.9608,3.9604,3.958,3.9575,3.9566,3.9565,3.9485,3.9484,3.9474,0,0,0,3.9721,3.9723,3.9705,3.9707,3.967,3.9638,3.9668,3.9608,3.9601,3.9576,3.9566,3.9565,3.9485,3.9484,3.9475,3.9467,0,0,0,3.9729,3.9723,3.9716,3.9708,3.9684,3.9639,3.9631,3.9606,3.9598,3.9567,3.9564,3.9485,3.9485,3.9476,3.9469,3.9447,0,0,0,3.9738,3.9705,3.9716,3.9676,3.9684,3.9634,3.9631,3.9593,3.9565,3.9566,3.9485,3.9484,3.9476,3.9469,3.9449,3.943,3.9424,0,0,3.9698,3.97,3.9676,3.9685,3.9635,3.9643,3.959,3.9558,3.9548,3.9505,3.9503,3.9475,3.9469,3.9448,3.9385,3.938,0,0,0,3.9665,3.9648,3.9634,3.961,3.9588,3.9568,3.9545,3.9533,3.9497,3.9529,3.9461,3.9457,3.9445,3.9436,3.9431,3.942,3.9481,3.9481,3.9481,3.9613,3.9607,3.9568,3.9556,3.9533,3.9511,3.9491,3.9471,3.9468,3.9453,3.944,3.9403,3.9393,3.9389,3.9378,3.943,3.943,3.943,3.943,3.9554,3.9529,3.9531,3.9494,3.9487,3.9454,3.9432,3.9432,3.9399,3.9412,3.94,3.9413,3.9384,3.9373,3.9429,3.9429,3.9429,3.9429,3.943,3.9518,3.9506,3.9495,3.9462,3.9437,3.9425,3.9395,3.9389,3.9382,3.9371,3.9357,3.9357,3.9356,3.9365,3.9365,3.9365,3.9365,3.9365,3.9365,3.9485,3.9474,3.9452,3.9428,3.9413,3.9393,3.9373,3.9357,3.9338,3.9335,3.9335,3.9334,3.9383,3.9395,3.9363,3.9363,3.9363,3.9363,3.9363,3.9425,3.9439,3.9404,3.939,3.9362,3.9338,3.9332,3.9302,3.9288,3.9273,3.9276,3.9313,3.9313,3.9316,3.9326,3.9278,3.9278,3.9278,3.9278,3.9395,3.9396,3.936,3.9338,3.9315,3.9308,3.9267,3.9252,3.9237,3.9228,3.9234,3.9247,3.9251,3.9248,3.9253,3.9262,3.9199,3.9199,3.9199,3.9358,3.9357,3.9324,3.9314,3.9293,3.9274,3.9236,3.9209,3.9194,3.9195,3.922,3.9224,3.9245,3.9252,3.9251,3.9259,3.9275,0,0]}]]